Flag for Brazil Weather past 2 weeks in Brasilia, Distrito Federal, Brazil

Now
59 °F

Clear.


Feels Like: 59 °F
Forecast: 53 / 77 °F
Wind: No wind

Location: Brasilia Aeroporto

Current Time: Jul 2, 2015 at 1:09:41 AM

Latest Report: Jul 2, 2015 at 12:00 AM


Visibility: 10 mi

Pressure: 30.18 "Hg

Humidity: 72%

Dew point: 50 °F

Location of BrasiliaLocation

Historic Weather in Brasilia — Graph

°F

Brasilia temperature yesterday

Maximum temperature yesterday: 79 °F (at 2:00 PM)
Minimum temperature yesterday: 54 °F (at 4:00 AM)
Average temperature yesterday: 67 °F

Past Weeks' High & Low Weather Summary

 TemperatureHumidityPressure
High79 °F (Jun 18, 2:00 PM)100% (Jun 23, 8:00 AM)30.42 "Hg (Jun 23, 8:00 AM)
Low50 °F (Jun 23, 6:00 AM)28% (Jul 1, 4:00 PM)30.12 "Hg (Jun 17, 3:00 AM)
Average65 °F66%30.25 "Hg
* Reported Midnight between Jun 16 and Jun 17 — Midnight between Jul 1 and Jul 2, Brasilia, Weather by CustomWeather, © 2015

Note: Actual official high and low records may vary slightly from our data, if they occured in-between our weather recording intervals... More about our weather records

Advertising

Brasilia weather history for previous 24 hours

 ConditionsComfort  
Time TempWeatherWind HumidityBarometerVisibility
12:00 AM
Thu, Jul 2
59 °FClear.No wind72%30.18 "Hg10 mi
11:00 PM
Wed, Jul 1
61 °FClear.No wind72%30.18 "Hg10 mi
10:00 PM66 °FClear.3 mph60%30.18 "Hg10 mi
9:00 PM68 °FClear.5 mph53%30.18 "Hg10 mi
8:00 PM72 °FClear.5 mph44%30.18 "Hg10 mi
7:00 PM73 °FClear.8 mph44%30.15 "Hg10 mi
6:00 PM77 °FPassing clouds.6 mph36%30.15 "HgN/A
5:00 PM79 °FScattered clouds.5 mph32%30.12 "HgN/A
4:00 PM79 °FScattered clouds.3 mph28%30.12 "HgN/A
3:00 PM79 °FScattered clouds.7 mph30%30.15 "HgN/A
2:00 PM79 °FScattered clouds.3 mph32%30.18 "HgN/A
1:00 PM77 °FScattered clouds.7 mph39%30.21 "HgN/A
12:00 PM77 °FScattered clouds.3 mph39%30.24 "HgN/A
11:00 AM75 °FScattered clouds.9 mph47%30.27 "HgN/A
10:00 AM72 °FSunny.8 mph53%30.27 "Hg10 mi
9:00 AM68 °FSunny.No wind60%30.27 "Hg10 mi
8:00 AM59 °FSunny.No wind77%30.24 "Hg10 mi
7:00 AM55 °FScattered clouds.2 mph77%30.24 "HgN/A
6:00 AM54 °FClear.No wind82%30.21 "Hg10 mi
5:00 AM54 °FClear.No wind82%30.18 "Hg10 mi
4:00 AM54 °FClear.No wind82%30.18 "Hg10 mi
3:00 AM57 °FClear.No wind77%30.18 "Hg10 mi
2:00 AM57 °FClear.3 mph77%30.21 "Hg10 mi
1:00 AM57 °FClear.No wind82%30.21 "Hg10 mi
Weather by CustomWeather, © 2015

See weather overviewHow to use our weather pages